Main page
METAR-TAF:

METAR-TAF

Airports :

Carlos Prates Airport

Belo Horizonte, Minas Gerais, Brazil

latitude: 19-54-33S, longitude: 043-59-21W, elevation: 928 m

Current weather observation

The report was made 1 hour and 20 minutes ago, at 09:00 UTC
Wind 10 kt from the East
Temperature 21°C
Humidity 83%
Pressure 1017 hPa
Visibility 10 km or more
no clouds below 1500 m and no cumulonimbus

METAR: SBPR 140900Z 10010KT CAVOK 21/18 Q1017

Time: 08:20 (10:20 UTC)


TAF: missing

Weather observations and forecasts of more than 4000 airports (METAR and TAF reports).

The available stations are represented by yellow and red dots on the map.

Hover mouse over dot to see the name of the station.

Then click to see weather observations and forecasts.

To change the map : click on the green buttons with a black cross to zoom in, on the green button with a dash to zoom out, or on the green arrows for adjacent maps.


METAR-TAF: